Regional Weather Roundup
Issued by NWS Green Bay, WI

Home | Current Version | Previous Version | Text Only | Print | Product List | Glossary Off
Versions: 1 2 3 4 5 6 7 8 9 10 11 12 13 14 15 16 17 18 19 20 21 22 23 24 25 26 27 28 29 30 31 32 33 34 35 36 37 38 39 40 41 42 43 44 45 46 47 48 49 50

123
ASUS43 KGRB 270811
RWRGRB

NORTH-CENTRAL AND NORTHEAST WISCONSIN REGIONAL WEATHER ROUNDUP
NATIONAL WEATHER SERVICE GREEN BAY WI
300 AM CDT MON MAR 27 2017

WIZ005-009-010>012-018-019-270900-
NORTH CENTRAL WISCONSIN

CITY           SKY/WX    TMP DP  RH WIND       PRES   REMARKS
IRONWOOD       FOG       32  32 100 NW3       29.91S VSB 1/4
MANITOWISH WTR CLOUDY    31  31 100 NW3       29.87S
ARBOR VITAE    CLOUDY    34  33  96 NW5       29.85S
EAGLE RIVER    CLOUDY    32  32 100 N5        29.84S
LAND O LAKES   CLOUDY    32  32  99 N7        29.87S
RHINELANDER    CLOUDY    35  34  96 NW3       29.86R
PHILLIPS       CLOUDY    32  32 100 NW3       29.87F
ANTIGO         CLOUDY    35  35 100 NW3       29.85S
TOMAHAWK       CLOUDY    33  32  96 NW3       29.87S
MERRILL        CLOUDY    36  36 100 CALM      29.86F
$$

WIZ013-073-270900-
NORTHEAST WISCONSIN

CITY           SKY/WX    TMP DP  RH WIND       PRES   REMARKS
IRON MOUNTAIN  CLOUDY    34  31  88 N7        29.83F
MARINETTE        N/A    N/A N/A N/A MISG        N/A
OCONTO         CLOUDY    36  35  99 CALM      29.85F
$$

WIZ017-030-035>037-045-270900-
CENTRAL WISCONSIN

CITY           SKY/WX    TMP DP  RH WIND       PRES   REMARKS
MEDFORD        CLOUDY    34  34  99 NW3       29.87R FOG
WAUSAU         CLOUDY    37  37 100 NW5       29.86R
MOSINEE        CLOUDY    36  36 100 W5        29.88R
MARSHFIELD     CLOUDY    38  36  92 NW5       29.87R
WISC RAPIDS    CLOUDY    39  39 100 N3        29.89S FOG
STEVENS POINT  CLOUDY    37  37 100 W3        29.87R FOG
WAUPACA        CLOUDY    39  38  96 CALM      29.87S FOG
SHAWANO        CLOUDY    38  37  93 W3        29.87R
CLINTONVILLE   CLOUDY    36  36 100 W3        29.87S
WAUTOMA        CLOUDY    39  39 100 SW3       29.89R FOG
$$

WIZ038-039-048-051-270900-
FOX VALLEY

CITY           SKY/WX    TMP DP  RH WIND       PRES   REMARKS
NWS GREEN BAY  CLOUDY    38  38 100 W5        29.87S
APPLETON       CLOUDY    36  36 100 W6        29.85S
OSHKOSH        CLOUDY    38  37  97 W3        29.88R
FOND DU LAC    CLOUDY    39  36  89 W5        29.88R
$$

WIZ022-050-052-270900-
EAST CENTRAL WISCONSIN

CITY           SKY/WX    TMP DP  RH WIND       PRES   REMARKS
EPHRAIM        CLOUDY    34  34 100 N6        29.84S FOG
WASHINGTON ISL CLOUDY    34  33  99 N8        29.84F
STURGEON BAY   CLOUDY    36  36 100 NW7       29.86S FOG
MANITOWOC      CLOUDY    37  36  96 W5        29.88R
SHEBOYGAN      CLOUDY    39  36  89 N6        29.86F
$$

LMZ563-521-522-541>543-270900-
LAKESHORE

STATION/POSITION TIME  TEMP    WIND        PRES    VSBY  WAVE
                       AIR SEA DIR/SP/G                  HT/PER
                 (UTC) (F)     (DEG/KT/KT) (MB)    (MI)  (FT/S)
SHEBOYGAN LKSHOR 0800   38      10/  6/  7 1011.5F
KEWAUNEE LKSHORE 0748   36     310/  2/  5 1010.7S
NORTHPORT PIER   0740   34     310/  8/ 11 1010.8F
SISTER BAY LKSHO 0706   33     350/  6/  7   N/A
CHAMBERS ISLAND  0740   35     270/  3/  5 1010.8S
MENOMINEE LKSHOR 0748   35     300/  4/  5 1010.1F
$$




USA.gov is the U.S. government's official web portal to all federal, state and local government web resources and services.